Location: Beetenbrück
(52.8113°N, 9.5946°E)
Time: 21:07:59
(UTC+00:00)

CZ-2C R/B - Pass Details

Date: 14 April 2026
Orbit: 781 x 868 km, 98.4° (Epoch: 12 May)

Event Time Altitude Azimuth Distance (km) Brightness Sun altitude
Exits shadow 22:44:51 43° 89° (E) 1,198 3.3 -27.0°
Maximum altitude 22:45:39 45° 65° (ENE) 1,148 3.4 -27.0°
Drops below altitude 10° 22:50:52 10° 354° (N) 2,475 6.1 -27.2°
Sets 22:53:17 0° 349° (NNW) 3,401 7.1 -27.2°
